Location: Unspecified
(0.0000°N, 0.0000°E)
Time: 14:18:54
(UTC+01:00)

Ariane H10+ - Visible Passes

Search period start: 23 November 2017 00:00
Search period end: 03 December 2017 00:00
Orbit: 333 x 31226 km, 6.9° (Epoch: 22 November)

Date Brightness Start Highest point End Pass type
(mag) Time Alt. Az. Time Alt. Az. Time Alt. Az.
23 Nov 7.0 11:48:59 10° WNW 18:15:33 56° ESE 20:09:21 10° E visible
24 Nov 2.2 05:48:03 23° W 05:49:41 54° N 05:51:49 10° ENE visible
24 Nov 7.8 15:23:41 10° W 17:14:16 82° W 23:34:05 74° SE visible
25 Nov 8.7 19:32:40 10° W 20:53:31 22° W 02:55:37 16° W visible
26 Nov 7.7 12:48:51 10° WNW 19:15:05 74° ESE 21:10:06 20° E visible
27 Nov 7.8 16:27:41 10° W 18:18:52 62° W 00:31:35 68° WSW visible
29 Nov 8.0 13:49:21 10° W 18:43:18 84° S 22:07:31 40° ESE visible
30 Nov 8.1 17:35:37 10° W 19:21:10 43° W 01:28:58 43° WSW visible
01 Dec 6.8 11:16:57 10° WNW 17:43:05 51° ESE 19:35:23 10° E visible
02 Dec 3.2 05:18:17 35° NE 05:18:17 35° NE 05:19:42 10° ENE visible
02 Dec 7.7 14:50:52 10° W 16:35:37 86° WSW 23:04:50 64° ESE visible
